Regional Weather Roundup
Issued by NWS

Home | Current Version | Previous Version | Text Only | Print | Product List | Glossary Off
Versions: 1 2 3 4 5 6 7 8 9 10 11 12 13 14 15 16 17 18 19 20 21 22 23 24 25 26 27 28 29 30 31 32 33 34 35 36 37 38 39 40 41 42 43 44 45 46 47 48 49 50

000
ASUS43 KDTX 051701
RWRMI
MICHIGAN HOURLY REGIONAL WEATHER ROUNDUP
NATIONAL WEATHER SERVICE DETROIT/PONTIAC MI
1200 PM EST FRI FEB 05 2016

NOTE: "FAIR" INDICATES FEW OR NO CLOUDS BELOW 12,000 FEET WITH NO
SIGNIFICANT WEATHER AND/OR OBSTRUCTION TO VISIBILITY.

MIZ047>049-052>055-059>063-066>070-074>076-081>083-051800-
SOUTHEAST LOWER MICHIGAN

CITY           SKY/WX    TMP DP  RH WIND       PRES   REMARKS
ADRIAN         SUNNY     42  22  44 SW6       30.35F
ALMA           CLOUDY    31  27  84 SW6       30.31S WCI  26
ANN ARBOR      SUNNY     33  23  66 S7        30.33F WCI  27
BAD AXE        CLOUDY    30  24  79 SW7       30.31S WCI  23
CARO           CLOUDY    31  25  78 S8        30.30F WCI  24
DETROIT CITY   SUNNY     32  22  66 VRB5      30.35F WCI  27
DETROIT        MOSUNNY   33  23  66 S6        30.36F WCI  28
FLINT          PTSUNNY   34  23  64 SW6       30.32S WCI  29
GROSSE ILE     SUNNY     34  27  75 S8        30.35F WCI  27
HILLSDALE      SUNNY     31  21  65 S5        30.31S WCI  27
HOWELL         MOSUNNY   33  24  70 S7        30.31F WCI  27

CITY           SKY/WX    TMP DP  RH WIND       PRES   REMARKS
JACKSON        CLOUDY    33  21  61 CALM      30.31F
LAMBERTVILLE   SUNNY     36  21  55 S6        30.36F WCI  31
LANSING        CLOUDY    32  23  69 SW7       30.31F WCI  26
LAPEER         CLOUDY    32  25  76 W6        30.31F WCI  26
MASON          MOSUNNY   32  23  70 S5        30.31F WCI  27
MONROE         SUNNY     34  23  64 S7        30.35F WCI  28
MT. CLEMENS    MOSUNNY   35  23  62 SW7       30.33F WCI  29
PONTIAC        MOSUNNY   33  22  63 S8        30.30F WCI  26
PORT HOPE        N/A     29  22  75 W8        30.29F WCI  21
PORT HURON     PTSUNNY   32  23  69 SW7       30.35S WCI  26
TRI CITIES     CLOUDY    32  24  72 SW12      30.31F WCI  23
MIDLAND        CLOUDY    31  23  73 W6        30.30F WCI  25
TROY           SUNNY     34  23  64 S6        30.35F WCI  29
SAGINAW HB     CLOUDY    32  27  80 SW7       30.31F WCI  26
$$
MIZ043>046-050>051-056>058-064>065-071>073-077>080-051800-
SOUTHWEST LOWER MICHIGAN

CITY           SKY/WX    TMP DP  RH WIND       PRES   REMARKS
BATTLE CREEK   PTSUNNY   30  22  72 S6        30.31F WCI  24
BENTON HARBOR  CLOUDY    32  27  81 SW7       30.33F WCI  26
BIG RAPIDS     CLOUDY    30  26  86 W5        30.29R WCI  25
COLDWATER      SUNNY     32  22  66 SW3       30.31F
FREMONT        CLOUDY    30  26  85 NW7       30.30S WCI  23
HOLLAND        LGT SNOW  31  28  89 SW5       30.32S FOG     WCI  26
GRAND RAPIDS   LGT SNOW  30  26  85 SW6       30.31S WCI  24
IONIA          LGT SNOW  31  26  83 SW6       30.30F WCI  25
KALAMAZOO      CLOUDY    32  23  69 SW8       30.32F WCI  25
LUDINGTON      CLOUDY    29  23  78 W7        30.32S WCI  22
MARSHALL       SUNNY     32  22  65 SW5       30.31F WCI  27
MOUNT PLEASANT CLOUDY    31  24  74 CALM      30.28F
MUSKEGON       FLURRIES  31  23  72 NW10      30.33R WCI  22
SOUTH HAVEN    CLOUDY    32  28  87 SW3       30.32F
$$
MIZ016>042-051800-
NORTHERN LOWER MICHIGAN

CITY           SKY/WX    TMP DP  RH WIND       PRES   REMARKS
ALPENA         CLOUDY    28  20  71 W6        30.27F WCI  22
BEAVER ISLAND  PTSUNNY   28  20  71 NW9G16    30.28S WCI  19
BELLAIRE       LGT SNOW  29  24  82 CALM      30.28F
CADILLAC       FLURRIES  28  24  86 W7        30.24F WCI  20
CHARLEVOIX     CLOUDY    29  19  66 NW7       30.30S WCI  22
FRANKFORT      FLURRIES  29  22  73 W5        30.29S WCI  24
GAYLORD        LGT SNOW  26  21  81 W7        30.23R WCI  18
GRAYLING       PTSUNNY   27  21  80 SW7       30.25F WCI  19
HARBOR SPRINGS CLOUDY    28  19  68 NW8       30.26S WCI  20
HOUGHTON LAKE  CLOUDY    26  22  84 SW6       30.26  WCI  19
MANISTEE       CLOUDY    28  21  74 NW9       30.30S WCI  20
OSCODA         CLOUDY    29  22  77 SW5       30.28F WCI  23
PELLSTON       CLOUDY    28  19  69 NW10      30.27S WCI  19
ROGERS CITY    CLOUDY    29  20  71 W6        30.27F WCI  23
TRAVERSE CITY  LGT SNOW  28  23  81 W3        30.28S
$$
MIZ007>008-015-051800-
EASTERN UPPER MICHIGAN

CITY           SKY/WX    TMP DP  RH WIND       PRES   REMARKS
KINROSS        CLOUDY    25  21  86 NW8       30.23F WCI  16
MACKINAC ISLAN CLOUDY    26  21  80 W9        30.25S WCI  17
NEWBERRY       PTSUNNY   25  15  65 W10       30.24S WCI  15
S. S. MARIE    FLURRIES  27  21  78 W13       30.22S WCI  16
$$
MIZ004>006-011>014-085-051800-
CENTRAL UPPER MICHIGAN

CITY           SKY/WX    TMP DP  RH WIND       PRES   REMARKS
MANISTIQUE     SUNNY     26  16  65 W9        30.28S WCI  17
ESCANABA       SUNNY     27  16  63 N8        30.30S WCI  18
MENOMINEE      SUNNY     23  12  63 W6        30.32S WCI  16
SAWYER-GWINN   MOSUNNY   18  18 100 NW9       30.24S WCI   6
$$
MIZ001>003-009>011-084-051800-
WESTERN UPPER MICHIGAN

CITY           SKY/WX    TMP DP  RH WIND       PRES   REMARKS
IRON MOUNTAIN  MIX PCPN  22  10  60 NW7       30.26S WCI  13
HOUGHTON       PTSUNNY   20  10  65 NW10      30.24F WCI   9
COPPER HARBOR    N/A     22  10  60 N10       30.28S WCI  11
IRONWOOD       CLOUDY    18  10  73 SW6       30.25S WCI   9
$$

ABBREVIATIONS USED IN REMARKS
   TC - TEMPERATURE IN CELSIUS
  WCI - WIND CHILL INDEX
   HX - HEAT INDEX
  VSB - VISIBILITY




USA.gov is the U.S. government's official web portal to all federal, state and local government web resources and services.